| time (UTC) | temp F | wind direction | speed MPH | gust MPH | rain 1hr in | rain 24hr in | rain mn in | humidity % | barometer mb |
| 20260901143500 | 69 | 198 | 0.0 | 1.0 | 0.05 | 0.31 | 0.31 | 96 | 1016.8 |
| 20260901142959 | 68 | 198 | 0.0 | 2.0 | 0.06 | 0.31 | 0.31 | 96 | 1016.8 |
| 20260901141959 | 68 | 193 | 0.0 | 0.0 | 0.07 | 0.31 | 0.31 | 96 | 1016.9 |
| 20260901141459 | 68 | 193 | 0.0 | 0.0 | 0.07 | 0.31 | 0.31 | 96 | 1016.9 |
| 20260901140959 | 68 | 193 | 0.0 | 0.0 | 0.08 | 0.31 | 0.31 | 96 | 1017.0 |
| 20260901140500 | 68 | 193 | 0.0 | 0.0 | 0.07 | 0.30 | 0.30 | 96 | 1016.9 |
| 20260901140002 | 68 | 193 | 0.0 | 0.0 | 0.07 | 0.30 | 0.30 | 96 | 1016.8 |
| 20260901135459 | 68 | 193 | 0.0 | 0.0 | 0.07 | 0.30 | 0.30 | 96 | 1016.8 |
| 20260901135000 | 68 | 193 | 0.0 | 0.0 | 0.06 | 0.29 | 0.29 | 96 | 1016.9 |
| 20260901133459 | 68 | 193 | 0.0 | 2.0 | 0.03 | 0.26 | 0.26 | 96 | 1017.2 |
| 20260901132959 | 68 | 192 | 0.0 | 0.0 | 0.02 | 0.25 | 0.25 | 96 | 1017.0 |
| 20260901132459 | 68 | 192 | 0.0 | 0.0 | 0.01 | 0.24 | 0.24 | 96 | 1017.0 |
| 20260901132000 | 68 | 192 | 0.0 | 0.0 | 0.01 | 0.24 | 0.24 | 96 | 1016.9 |
| 20260901131459 | 68 | 192 | 0.0 | 0.0 | 0.01 | 0.24 | 0.24 | 96 | 1016.9 |
| 20260901130959 | 68 | 192 | 0.0 | 2.0 | 0.00 | 0.23 | 0.23 | 96 | 1016.8 |
| 20260901130459 | 68 | 192 | 0.0 | 2.0 | 0.01 | 0.23 | 0.23 | 96 | 1016.9 |
| 20260901125959 | 68 | 176 | 0.0 | 2.0 | 0.01 | 0.23 | 0.23 | 96 | 1017.1 |
| 20260901125500 | 68 | 176 | 0.0 | 2.0 | 0.01 | 0.23 | 0.23 | 96 | 1017.0 |
| 20260901124959 | 67 | 198 | 0.0 | 2.0 | 0.01 | 0.23 | 0.23 | 96 | 1016.9 |
| 20260901124459 | 67 | 261 | 0.0 | 0.0 | 0.01 | 0.23 | 0.23 | 96 | 1017.0 |
| 20260901123959 | 67 | 261 | 0.0 | 0.0 | 0.01 | 0.23 | 0.23 | 96 | 1017.0 |
| 20260901123500 | 67 | 261 | 0.0 | 0.0 | 0.01 | 0.23 | 0.23 | 96 | 1017.1 |
| 20260901123000 | 67 | 261 | 0.0 | 0.0 | 0.01 | 0.23 | 0.23 | 96 | 1017.0 |
| 20260901122500 | 67 | 283 | 0.0 | 0.0 | 0.01 | 0.23 | 0.23 | 96 | 1017.0 |
| 20260901122000 | 67 | 290 | 0.0 | 0.0 | 0.01 | 0.23 | 0.23 | 96 | 1016.9 |
| 20260901121459 | 67 | 290 | 0.0 | 0.0 | 0.01 | 0.23 | 0.23 | 96 | 1016.9 |
| 20260901120459 | 67 | 290 | 0.0 | 0.0 | 0.00 | 0.22 | 0.22 | 96 | 1017.1 |
| 20260901120000 | 67 | 290 | 0.0 | 0.0 | 0.00 | 0.22 | 0.22 | 96 | 1017.1 |
| 20260901115458 | 67 | 290 | 0.0 | 2.0 | 0.00 | 0.22 | 0.22 | 96 | 1017.1 |
| 20260901114959 | 67 | 290 | 0.0 | 3.0 | 0.00 | 0.22 | 0.22 | 95 | 1017.0 |
| 20260901114458 | 67 | 290 | 0.0 | 3.0 | 0.00 | 0.22 | 0.22 | 95 | 1016.9 |
| 20260901113458 | 67 | 191 | 0.0 | 0.0 | 0.00 | 0.22 | 0.22 | 95 | 1016.8 |
| 20260901112959 | 67 | 191 | 0.0 | 0.0 | 0.00 | 0.22 | 0.22 | 95 | 1016.9 |
| 20260901112458 | 67 | 213 | 0.0 | 0.0 | 0.00 | 0.22 | 0.22 | 95 | 1016.9 |
| 20260901111958 | 67 | 213 | 0.0 | 0.0 | 0.00 | 0.22 | 0.22 | 95 | 1016.9 |
| 20260901111458 | 67 | 213 | 0.0 | 0.0 | 0.00 | 0.22 | 0.22 | 95 | 1016.8 |
| 20260901110958 | 67 | 213 | 0.0 | 0.0 | 0.00 | 0.22 | 0.22 | 95 | 1016.9 |
| 20260901110459 | 67 | 213 | 0.0 | 0.0 | 0.00 | 0.22 | 0.22 | 95 | 1016.9 |
| 20260901105458 | 67 | 213 | 0.0 | 0.0 | 0.00 | 0.22 | 0.22 | 95 | 1016.9 |
| 20260901104958 | 67 | 213 | 0.0 | 0.0 | 0.00 | 0.22 | 0.22 | 95 | 1016.9 |
| 20260901104458 | 67 | 213 | 0.0 | 0.0 | 0.00 | 0.22 | 0.22 | 95 | 1016.8 |
| 20260901103959 | 67 | 213 | 0.0 | 0.0 | 0.00 | 0.22 | 0.22 | 95 | 1016.8 |
| 20260901103458 | 67 | 211 | 0.0 | 0.0 | 0.00 | 0.22 | 0.22 | 95 | 1016.8 |
| 20260901102958 | 67 | 211 | 0.0 | 0.0 | 0.00 | 0.22 | 0.22 | 95 | 1016.9 |
| 20260901102458 | 67 | 211 | 0.0 | 1.0 | 0.00 | 0.22 | 0.22 | 95 | 1016.6 |
| 20260901101958 | 67 | 292 | 0.0 | 0.0 | 0.00 | 0.22 | 0.22 | 95 | 1016.7 |
| 20260901101458 | 67 | 292 | 0.0 | 0.0 | 0.00 | 0.22 | 0.22 | 95 | 1016.7 |
| 20260901100958 | 67 | 292 | 0.0 | 0.0 | 0.01 | 0.22 | 0.22 | 95 | 1016.8 |
| 20260901100002 | 67 | 216 | 0.0 | 0.0 | 0.01 | 0.22 | 0.22 | 95 | 1016.6 |
| 20260901095459 | 67 | 216 | 0.0 | 0.0 | 0.01 | 0.22 | 0.22 | 95 | 1016.6 |
| 20260901094959 | 67 | 216 | 0.0 | 0.0 | 0.01 | 0.22 | 0.22 | 95 | 1016.8 |
| 20260901093959 | 67 | 216 | 0.0 | 0.0 | 0.02 | 0.22 | 0.22 | 95 | 1016.7 |
| 20260901093459 | 66 | 216 | 0.0 | 0.0 | 0.02 | 0.22 | 0.22 | 95 | 1016.8 |
| 20260901092959 | 66 | 216 | 0.0 | 0.0 | 0.02 | 0.22 | 0.22 | 95 | 1016.8 |
| 20260901092459 | 66 | 216 | 0.0 | 0.0 | 0.02 | 0.22 | 0.22 | 95 | 1016.8 |
| 20260901092000 | 66 | 216 | 0.0 | 0.0 | 0.02 | 0.22 | 0.22 | 95 | 1016.8 |
| 20260901091459 | 66 | 216 | 0.0 | 0.0 | 0.02 | 0.22 | 0.22 | 95 | 1016.7 |
| 20260901091000 | 66 | 216 | 0.0 | 0.0 | 0.01 | 0.21 | 0.21 | 95 | 1016.8 |
| 20260901090500 | 66 | 216 | 0.0 | 0.0 | 0.02 | 0.21 | 0.21 | 95 | 1016.9 |
| 20260901090000 | 66 | 216 | 0.0 | 0.0 | 0.02 | 0.21 | 0.21 | 95 | 1017.0 |
| 20260901085458 | 66 | 216 | 0.0 | 0.0 | 0.03 | 0.21 | 0.21 | 95 | 1017.1 |
| 20260901084959 | 66 | 216 | 0.0 | 0.0 | 0.04 | 0.21 | 0.21 | 95 | 1017.1 |
| 20260901083958 | 66 | 214 | 0.0 | 0.0 | 0.05 | 0.20 | 0.20 | 95 | 1017.3 |
| 20260901083458 | 67 | 214 | 0.0 | 0.0 | 0.06 | 0.20 | 0.20 | 95 | 1017.4 |
| 20260901082958 | 66 | 214 | 0.0 | 0.0 | 0.06 | 0.20 | 0.20 | 95 | 1017.3 |
| 20260901082458 | 67 | 214 | 0.0 | 0.0 | 0.06 | 0.20 | 0.20 | 95 | 1017.3 |
| 20260901081958 | 67 | 214 | 0.0 | 0.0 | 0.06 | 0.20 | 0.20 | 95 | 1017.4 |
| 20260901081458 | 67 | 214 | 0.0 | 0.0 | 0.06 | 0.20 | 0.20 | 95 | 1017.4 |
| 20260901080958 | 67 | 214 | 0.0 | 0.0 | 0.07 | 0.20 | 0.20 | 95 | 1017.4 |
| 20260901080458 | 67 | 214 | 0.0 | 0.0 | 0.06 | 0.19 | 0.19 | 94 | 1017.4 |
| 20260901075458 | 67 | 214 | 0.0 | 0.0 | 0.07 | 0.18 | 0.18 | 94 | 1017.5 |
| 20260901074958 | 67 | 214 | 0.0 | 0.0 | 0.09 | 0.17 | 0.17 | 94 | 1017.4 |
| 20260901073458 | 67 | 214 | 0.0 | 0.0 | 0.10 | 0.14 | 0.14 | 95 | 1017.6 |
| 20260901072958 | 67 | 214 | 0.0 | 0.0 | 0.10 | 0.14 | 0.14 | 94 | 1017.6 |
| 20260901072459 | 67 | 214 | 0.0 | 2.0 | 0.10 | 0.14 | 0.14 | 94 | 1017.6 |
| 20260901071958 | 67 | 286 | 1.0 | 2.0 | 0.10 | 0.14 | 0.14 | 94 | 1017.6 |
| 20260901071458 | 67 | 30 | 0.0 | 0.0 | 0.12 | 0.14 | 0.14 | 94 | 1017.6 |
| 20260901070959 | 67 | 34 | 0.0 | 0.0 | 0.12 | 0.13 | 0.13 | 94 | 1017.6 |
| 20260901070458 | 67 | 34 | 0.0 | 0.0 | 0.13 | 0.13 | 0.13 | 94 | 1017.7 |
| 20260901070001 | 67 | 34 | 0.0 | 0.0 | 0.13 | 0.13 | 0.13 | 94 | 1017.7 |
| 20260901065500 | 67 | 34 | 0.0 | 0.0 | 0.11 | 0.11 | 0.11 | 94 | 1017.7 |
| 20260901064959 | 67 | 34 | 0.0 | 0.0 | 0.08 | 0.08 | 0.08 | 94 | 1017.7 |
| 20260901064459 | 67 | 34 | 0.0 | 0.0 | 0.06 | 0.06 | 0.06 | 94 | 1017.8 |
| 20260901063959 | 67 | 34 | 0.0 | 0.0 | 0.05 | 0.05 | 0.05 | 94 | 1017.8 |
| 20260901062959 | 67 | 34 | 0.0 | 0.0 | 0.04 | 0.04 | 0.04 | 94 | 1017.9 |
| 20260901062459 | 67 | 34 | 0.0 | 0.0 | 0.04 | 0.04 | 0.04 | 94 | 1017.9 |
| 20260901061959 | 67 | 34 | 0.0 | 0.0 | 0.04 | 0.04 | 0.04 | 94 | 1017.9 |
| 20260901060959 | 67 | 5 | 0.0 | 0.0 | 0.01 | 0.01 | 0.01 | 94 | 1018.0 |
| 20260901060459 | 67 | 5 | 0.0 | 0.0 | 0.00 | 0.00 | 0.00 | 93 | 1018.1 |
| 20260901055958 | 67 | 5 | 0.0 | 0.0 | 0.00 | 0.00 | 0.00 | 93 | 1018.1 |
| 20260901055459 | 67 | 5 | 0.0 | 0.0 | 0.00 | 0.00 | 0.00 | 93 | 1018.1 |
| 20260901054958 | 67 | 5 | 0.0 | 0.0 | 0.00 | 0.00 | 0.00 | 93 | 1018.1 |
| 20260901053958 | 67 | 5 | 0.0 | 0.0 | 0.00 | 0.00 | 0.00 | 93 | 1018.2 |
| 20260901053458 | 67 | 5 | 0.0 | 0.0 | 0.00 | 0.00 | 0.00 | 93 | 1018.2 |
| 20260901052957 | 67 | 5 | 0.0 | 0.0 | 0.00 | 0.00 | 0.00 | 93 | 1018.2 |
| 20260901052459 | 67 | 5 | 0.0 | 0.0 | 0.00 | 0.00 | 0.00 | 93 | 1018.3 |
| 20260901051959 | 67 | 5 | 0.0 | 0.0 | 0.00 | 0.00 | 0.00 | 93 | 1018.3 |
| 20260901051458 | 67 | 5 | 0.0 | 0.0 | 0.00 | 0.00 | 0.00 | 93 | 1018.3 |
| 20260901050458 | 67 | 5 | 0.0 | 0.0 | 0.00 | 0.00 | 0.00 | 93 | 1018.4 |
| 20260901050003 | 67 | 5 | 0.0 | 0.0 | 0.00 | 0.00 | 0.00 | 93 | 1018.4 |
| 20260901045500 | 67 | 5 | 0.0 | 0.0 | 0.00 | 0.00 | 0.00 | 93 | 1018.5 |
| 20260901045000 | 67 | 5 | 0.0 | 0.0 | 0.00 | 0.00 | 0.00 | 93 | 1018.5 |
| 20260901044500 | 67 | 5 | 0.0 | 0.0 | 0.00 | 0.00 | 0.00 | 93 | 1018.6 |
| 20260901043000 | 67 | 5 | 0.0 | 0.0 | 0.00 | 0.00 | 0.00 | 93 | 1018.6 |
| 20260901042459 | 67 | 5 | 0.0 | 0.0 | 0.00 | 0.00 | 0.00 | 92 | 1018.7 |
| 20260901042000 | 67 | 5 | 0.0 | 0.0 | 0.00 | 0.00 | 0.00 | 92 | 1018.7 |
| 20260901041500 | 67 | 5 | 0.0 | 0.0 | 0.00 | 0.00 | 0.00 | 92 | 1018.7 |
| 20260901040500 | 67 | 5 | 0.0 | 0.0 | 0.00 | 0.00 | 0.00 | 92 | 1018.6 |
| 20260901040001 | 67 | 5 | 0.0 | 0.0 | 0.00 | 0.00 | 0.00 | 92 | 1018.5 |
| 20260901035500 | 67 | 5 | 0.0 | 0.0 | 0.00 | 0.00 | 0.00 | 92 | 1018.6 |
| 20260901035000 | 67 | 5 | 0.0 | 0.0 | 0.00 | 0.00 | 0.00 | 92 | 1018.7 |
| 20260901034501 | 67 | 5 | 0.0 | 0.0 | 0.00 | 0.00 | 0.00 | 92 | 1018.6 |
| 20260901034000 | 67 | 5 | 0.0 | 0.0 | 0.00 | 0.00 | 0.00 | 92 | 1018.6 |
| 20260901033500 | 67 | 9 | 0.0 | 0.0 | 0.00 | 0.00 | 0.00 | 92 | 1018.6 |
| 20260901032500 | 67 | 9 | 0.0 | 0.0 | 0.00 | 0.00 | 0.00 | 92 | 1018.8 |
| 20260901032000 | 67 | 9 | 0.0 | 0.0 | 0.00 | 0.00 | 0.00 | 91 | 1018.9 |
| 20260901031500 | 67 | 9 | 0.0 | 0.0 | 0.00 | 0.00 | 0.00 | 91 | 1018.9 |
| 20260901030500 | 67 | 9 | 0.0 | 0.0 | 0.00 | 0.00 | 0.00 | 91 | 1019.1 |
| 20260901030000 | 67 | 9 | 0.0 | 0.0 | 0.00 | 0.00 | 0.00 | 91 | 1019.1 |
| 20260901025501 | 67 | 9 | 0.0 | 0.0 | 0.00 | 0.00 | 0.00 | 91 | 1019.1 |
| 20260901025002 | 67 | 9 | 0.0 | 0.0 | 0.00 | 0.00 | 0.00 | 91 | 1019.1 |
| 20260901024501 | 67 | 9 | 0.0 | 0.0 | 0.00 | 0.00 | 0.00 | 91 | 1019.1 |
| 20260901024001 | 67 | 9 | 0.0 | 0.0 | 0.00 | 0.00 | 0.00 | 91 | 1019.1 |
| 20260901023001 | 67 | 5 | 0.0 | 0.0 | 0.00 | 0.00 | 0.00 | 91 | 1019.0 |
| 20260901022502 | 67 | 5 | 0.0 | 0.0 | 0.00 | 0.00 | 0.00 | 91 | 1018.9 |
| 20260901022001 | 67 | 5 | 0.0 | 0.0 | 0.00 | 0.00 | 0.00 | 91 | 1019.0 |
| 20260901021501 | 67 | 5 | 0.0 | 1.0 | 0.00 | 0.00 | 0.00 | 90 | 1018.9 |
| 20260901021001 | 67 | 5 | 0.0 | 1.0 | 0.00 | 0.00 | 0.00 | 90 | 1019.1 |
| 20260901020501 | 67 | 5 | 0.0 | 2.0 | 0.00 | 0.00 | 0.00 | 90 | 1019.1 |
| 20260901020003 | 68 | 5 | 0.0 | 1.0 | 0.00 | 0.00 | 0.00 | 90 | 1019.1 |
| 20260901015500 | 68 | 5 | 0.0 | 1.0 | 0.00 | 0.00 | 0.00 | 90 | 1019.2 |
| 20260901015000 | 68 | 5 | 0.0 | 0.0 | 0.00 | 0.00 | 0.00 | 90 | 1019.2 |
| 20260901014500 | 68 | 5 | 0.0 | 0.0 | 0.00 | 0.00 | 0.00 | 90 | 1019.3 |
| 20260901013500 | 68 | 5 | 0.0 | 0.0 | 0.00 | 0.00 | 0.00 | 90 | 1019.4 |
| 20260901013000 | 68 | 5 | 0.0 | 0.0 | 0.00 | 0.00 | 0.00 | 89 | 1019.4 |
| 20260901012500 | 68 | 5 | 0.0 | 0.0 | 0.00 | 0.00 | 0.00 | 89 | 1019.5 |
| 20260901012000 | 68 | 5 | 0.0 | 1.0 | 0.00 | 0.00 | 0.00 | 89 | 1019.5 |
| 20260901010959 | 68 | 5 | 0.0 | 1.0 | 0.00 | 0.00 | 0.00 | 89 | 1019.4 |
| 20260901005959 | 68 | 5 | 0.0 | 0.0 | 0.00 | 0.00 | 0.00 | 89 | 1019.3 |
| 20260901005500 | 68 | 5 | 0.0 | 0.0 | 0.00 | 0.00 | 0.00 | 89 | 1019.3 |
| 20260901005001 | 68 | 5 | 0.0 | 0.0 | 0.00 | 0.00 | 0.00 | 88 | 1019.1 |
| 20260901004500 | 68 | 5 | 0.0 | 0.0 | 0.00 | 0.00 | 0.00 | 88 | 1019.1 |
| 20260901004001 | 68 | 5 | 0.0 | 1.0 | 0.00 | 0.00 | 0.00 | 88 | 1019.2 |
| 20260901003500 | 68 | 5 | 0.0 | 1.0 | 0.00 | 0.00 | 0.00 | 88 | 1019.2 |
| 20260901003000 | 68 | 5 | 0.0 | 1.0 | 0.00 | 0.00 | 0.00 | 88 | 1019.3 |
| 20260901002501 | 68 | 5 | 0.0 | 0.0 | 0.00 | 0.00 | 0.00 | 88 | 1019.2 |
| 20260901002000 | 68 | 5 | 0.0 | 0.0 | 0.00 | 0.00 | 0.00 | 88 | 1019.1 |
| 20260901001000 | 68 | 5 | 0.0 | 0.0 | 0.00 | 0.00 | 0.00 | 88 | 1019.1 |
| 20260901000500 | 68 | 5 | 0.0 | 0.0 | 0.00 | 0.00 | 0.00 | 87 | 1019.0 |
| 20260901000000 | 68 | 5 | 0.0 | 1.0 | 0.00 | 0.00 | 0.00 | 87 | 1019.0 |
| 20260831235500 | 68 | 5 | 0.0 | 1.0 | 0.00 | 0.00 | 0.00 | 87 | 1019.1 |
| 20260831235000 | 68 | 5 | 0.0 | 1.0 | 0.00 | 0.00 | 0.00 | 87 | 1019.1 |
| 20260831234459 | 68 | 5 | 0.0 | 0.0 | 0.00 | 0.00 | 0.00 | 86 | 1019.1 |
| 20260831233959 | 68 | 5 | 0.0 | 0.0 | 0.00 | 0.00 | 0.00 | 87 | 1019.2 |
| 20260831233000 | 68 | 360 | 0.0 | 0.0 | 0.00 | 0.00 | 0.00 | 86 | 1019.4 |
| 20260831232002 | 68 | 360 | 0.0 | 0.0 | 0.00 | 0.00 | 0.00 | 86 | 1019.4 |
| 20260831231500 | 68 | 360 | 0.0 | 0.0 | 0.00 | 0.00 | 0.00 | 85 | 1019.5 |
| 20260831230500 | 68 | 360 | 0.0 | 2.0 | 0.00 | 0.00 | 0.00 | 84 | 1019.5 |
| 20260831230000 | 69 | 360 | 0.0 | 2.0 | 0.00 | 0.00 | 0.00 | 84 | 1019.5 |
| 20260831225500 | 69 | 215 | 0.0 | 1.0 | 0.00 | 0.00 | 0.00 | 84 | 1019.5 |
| 20260831225001 | 69 | 215 | 0.0 | 1.0 | 0.00 | 0.00 | 0.00 | 84 | 1019.6 |
| 20260831224000 | 69 | 211 | 0.0 | 1.0 | 0.00 | 0.00 | 0.00 | 83 | 1019.7 |
| 20260831223459 | 69 | 211 | 0.0 | 1.0 | 0.00 | 0.00 | 0.00 | 83 | 1019.6 |
| 20260831222959 | 69 | 205 | 0.0 | 1.0 | 0.00 | 0.00 | 0.00 | 83 | 1019.6 |
| 20260831222500 | 69 | 205 | 0.0 | 1.0 | 0.00 | 0.00 | 0.00 | 83 | 1019.6 |
| 20260831221500 | 69 | 205 | 0.0 | 0.0 | 0.00 | 0.00 | 0.00 | 83 | 1019.5 |
| 20260831220500 | 69 | 205 | 0.0 | 0.0 | 0.00 | 0.00 | 0.00 | 85 | 1019.4 |
| 20260831220003 | 69 | 205 | 0.0 | 0.0 | 0.00 | 0.00 | 0.00 | 85 | 1019.5 |
| 20260831215503 | 70 | 205 | 0.0 | 0.0 | 0.00 | 0.00 | 0.00 | 85 | 1019.6 |
| 20260831215003 | 70 | 205 | 0.0 | 0.0 | 0.00 | 0.00 | 0.00 | 85 | 1019.6 |
| 20260831214459 | 70 | 205 | 0.0 | 1.0 | 0.00 | 0.00 | 0.00 | 84 | 1019.7 |
| 20260831214003 | 70 | 205 | 0.0 | 2.0 | 0.00 | 0.00 | 0.00 | 83 | 1019.7 |
| 20260831213502 | 70 | 205 | 0.0 | 2.0 | 0.00 | 0.00 | 0.00 | 84 | 1019.7 |
| 20260831212959 | 70 | 205 | 0.0 | 2.0 | 0.00 | 0.00 | 0.00 | 83 | 1019.5 |
| 20260831212003 | 70 | 193 | 0.0 | 2.0 | 0.00 | 0.00 | 0.00 | 83 | 1019.5 |
| 20260831211459 | 71 | 193 | 0.0 | 2.0 | 0.00 | 0.00 | 0.00 | 83 | 1019.6 |
| 20260831211000 | 71 | 205 | 0.0 | 1.0 | 0.00 | 0.00 | 0.00 | 82 | 1019.5 |
| 20260831210502 | 71 | 205 | 0.0 | 2.0 | 0.00 | 0.00 | 0.00 | 82 | 1019.6 |
| 20260831205500 | 71 | 207 | 0.0 | 1.0 | 0.00 | 0.00 | 0.00 | 82 | 1019.6 |
| 20260831205000 | 71 | 207 | 0.0 | 1.0 | 0.00 | 0.00 | 0.00 | 82 | 1019.6 |
| 20260831204500 | 71 | 194 | 0.0 | 1.0 | 0.00 | 0.00 | 0.00 | 82 | 1019.7 |
| 20260831203459 | 71 | 192 | 1.0 | 2.0 | 0.00 | 0.00 | 0.00 | 82 | 1019.5 |
| 20260831202959 | 71 | 192 | 0.0 | 2.0 | 0.00 | 0.00 | 0.00 | 80 | 1019.6 |
| 20260831202500 | 71 | 192 | 0.0 | 2.0 | 0.00 | 0.00 | 0.00 | 80 | 1019.6 |
| 20260831202001 | 71 | 192 | 0.0 | 2.0 | 0.00 | 0.00 | 0.00 | 79 | 1019.6 |
| 20260831201500 | 72 | 192 | 0.0 | 2.0 | 0.00 | 0.00 | 0.00 | 79 | 1019.7 |
| 20260831200002 | 72 | 192 | 1.0 | 3.0 | 0.00 | 0.00 | 0.00 | 76 | 1019.7 |
| 20260831195459 | 72 | 192 | 2.0 | 3.0 | 0.00 | 0.00 | 0.00 | 76 | 1019.8 |
| 20260831194959 | 72 | 191 | 0.0 | 3.0 | 0.00 | 0.00 | 0.00 | 74 | 1019.9 |
| 20260831194500 | 72 | 194 | 2.0 | 3.0 | 0.00 | 0.00 | 0.00 | 73 | 1020.0 |
| 20260831194002 | 72 | 240 | 2.0 | 2.0 | 0.00 | 0.00 | 0.00 | 71 | 1020.1 |
| 20260831193500 | 72 | 304 | 0.0 | 4.0 | 0.00 | 0.00 | 0.00 | 68 | 1020.1 |
| 20260831192959 | 72 | 236 | 2.0 | 4.0 | 0.00 | 0.00 | 0.00 | 71 | 1020.1 |
| 20260831192459 | 72 | 317 | 1.0 | 2.0 | 0.00 | 0.00 | 0.00 | 73 | 1020.2 |
| 20260831192001 | 72 | 321 | 0.0 | 2.0 | 0.00 | 0.00 | 0.00 | 73 | 1020.1 |
| 20260831191459 | 72 | 310 | 2.0 | 4.0 | 0.00 | 0.00 | 0.00 | 73 | 1020.2 |
| 20260831191000 | 72 | 40 | 0.0 | 4.0 | 0.00 | 0.00 | 0.00 | 73 | 1020.3 |
| 20260831190500 | 72 | 175 | 0.0 | 2.0 | 0.00 | 0.00 | 0.00 | 73 | 1020.3 |
| 20260831185500 | 72 | 207 | 0.0 | 2.0 | 0.00 | 0.00 | 0.00 | 70 | 1020.4 |
| 20260831184958 | 72 | 230 | 0.0 | 3.0 | 0.00 | 0.00 | 0.00 | 69 | 1020.4 |
| 20260831184459 | 72 | 211 | 0.0 | 3.0 | 0.00 | 0.00 | 0.00 | 72 | 1020.3 |
| 20260831183459 | 72 | 279 | 0.0 | 4.0 | 0.00 | 0.00 | 0.00 | 74 | 1020.5 |
| 20260831182959 | 72 | 220 | 0.0 | 4.0 | 0.00 | 0.00 | 0.00 | 69 | 1020.6 |
| 20260831181959 | 72 | 269 | 2.0 | 3.0 | 0.00 | 0.00 | 0.00 | 73 | 1020.7 |
| 20260831181459 | 72 | 251 | 1.0 | 2.0 | 0.00 | 0.00 | 0.00 | 73 | 1020.7 |
| 20260831180959 | 72 | 254 | 0.0 | 2.0 | 0.00 | 0.00 | 0.00 | 75 | 1020.6 |
| 20260831180459 | 72 | 254 | 0.0 | 3.0 | 0.00 | 0.00 | 0.00 | 74 | 1020.7 |
| 20260831180002 | 72 | 247 | 1.0 | 3.0 | 0.00 | 0.00 | 0.00 | 69 | 1020.6 |
| 20260831175500 | 73 | 248 | 0.0 | 2.0 | 0.00 | 0.00 | 0.00 | 72 | 1020.7 |
| 20260831175000 | 73 | 248 | 0.0 | 2.0 | 0.00 | 0.00 | 0.00 | 69 | 1020.9 |
| 20260831174459 | 74 | 215 | 0.0 | 3.0 | 0.00 | 0.00 | 0.00 | 69 | 1020.7 |
| 20260831173959 | 75 | 242 | 0.0 | 3.0 | 0.00 | 0.00 | 0.00 | 69 | 1020.7 |
| 20260831173500 | 76 | 199 | 2.0 | 3.0 | 0.00 | 0.00 | 0.00 | 70 | 1020.8 |
| 20260831173000 | 77 | 222 | 1.0 | 2.0 | 0.00 | 0.00 | 0.00 | 71 | 1020.7 |
| 20260831172500 | 76 | 355 | 2.0 | 3.0 | 0.00 | 0.00 | 0.00 | 70 | 1020.8 |
| 20260831171500 | 77 | 259 | 1.0 | 3.0 | 0.00 | 0.00 | 0.00 | 72 | 1020.8 |
| 20260831171000 | 76 | 235 | 1.0 | 3.0 | 0.00 | 0.00 | 0.00 | 74 | 1020.8 |
| 20260831170500 | 76 | 79 | 0.0 | 4.0 | 0.00 | 0.00 | 0.00 | 72 | 1020.8 |
| 20260831170000 | 76 | 266 | 1.0 | 5.0 | 0.00 | 0.00 | 0.00 | 71 | 1020.8 |
| 20260831165459 | 76 | 236 | 2.0 | 5.0 | 0.00 | 0.00 | 0.00 | 74 | 1020.9 |
| 20260831164958 | 75 | 211 | 0.0 | 5.0 | 0.00 | 0.00 | 0.00 | 74 | 1021.0 |
| 20260831164459 | 75 | 360 | 1.0 | 3.0 | 0.00 | 0.00 | 0.00 | 76 | 1021.1 |
| 20260831163459 | 75 | 31 | 0.0 | 2.0 | 0.00 | 0.00 | 0.00 | 71 | 1021.0 |
| 20260831162958 | 75 | 26 | 0.0 | 4.0 | 0.00 | 0.00 | 0.00 | 72 | 1021.0 |
| 20260831162459 | 74 | 54 | 0.0 | 4.0 | 0.00 | 0.00 | 0.00 | 74 | 1021.0 |
| 20260831161958 | 74 | 56 | 2.0 | 3.0 | 0.00 | 0.00 | 0.00 | 73 | 1021.1 |
| 20260831161459 | 75 | 49 | 0.0 | 3.0 | 0.00 | 0.00 | 0.00 | 76 | 1021.1 |
| 20260831160958 | 74 | 80 | 0.0 | 6.0 | 0.00 | 0.00 | 0.00 | 74 | 1021.2 |
| 20260831160458 | 74 | 80 | 1.0 | 6.0 | 0.00 | 0.00 | 0.00 | 76 | 1021.2 |
| 20260831155959 | 74 | 27 | 2.0 | 5.0 | 0.00 | 0.00 | 0.00 | 72 | 1021.2 |
| 20260831155459 | 74 | 53 | 1.0 | 8.0 | 0.00 | 0.00 | 0.00 | 72 | 1021.2 |
| 20260831155000 | 74 | 225 | 3.0 | 8.0 | 0.00 | 0.00 | 0.00 | 70 | 1021.2 |
| 20260831154459 | 75 | 80 | 2.0 | 7.0 | 0.00 | 0.00 | 0.00 | 71 | 1021.2 |
| 20260831153959 | 75 | 55 | 1.0 | 5.0 | 0.00 | 0.00 | 0.00 | 70 | 1021.2 |
| 20260831153500 | 75 | 41 | 1.0 | 5.0 | 0.00 | 0.00 | 0.00 | 71 | 1021.2 |
| 20260831152959 | 74 | 215 | 0.0 | 5.0 | 0.00 | 0.00 | 0.00 | 71 | 1021.4 |
| 20260831152459 | 73 | 232 | 0.0 | 5.0 | 0.00 | 0.00 | 0.00 | 72 | 1021.3 |
| 20260831152000 | 73 | 213 | 1.0 | 8.0 | 0.00 | 0.00 | 0.00 | 74 | 1021.2 |
| 20260831151501 | 73 | 74 | 3.0 | 8.0 | 0.00 | 0.00 | 0.00 | 76 | 1021.3 |
| 20260831151000 | 72 | 49 | 2.0 | 6.0 | 0.00 | 0.00 | 0.00 | 76 | 1021.3 |
| 20260831150459 | 72 | 62 | 4.0 | 9.0 | 0.00 | 0.00 | 0.00 | 76 | 1021.3 |
| 20260831150002 | 72 | 55 | 4.0 | 9.0 | 0.00 | 0.00 | 0.00 | 77 | 1021.2 |
| 20260831145500 | 72 | 47 | 0.0 | 5.0 | 0.00 | 0.00 | 0.00 | 78 | 1021.2 |
| 20260831144959 | 71 | 30 | 0.0 | 6.0 | 0.00 | 0.00 | 0.00 | 78 | 1021.3 |
| 20260831144459 | 71 | 18 | 2.0 | 9.0 | 0.00 | 0.00 | 0.00 | 79 | 1021.6 |
| 20260831144000 | 71 | 31 | 5.0 | 9.0 | 0.00 | 0.00 | 0.00 | 78 | 1021.5 |